Change the Weather History Date:

Saturday, September 21, 2013

  Actual Average Record
Temperature  
Mean Temperature 60 °F -  
Max Temperature 69 °F 62 °F 86 °F (2003)
Min Temperature 50 °F 48 °F 42 °F (1997)
Degree Days  
Heating Degree Days 6    
Growing Degree Days 10 (Base 50)    
Moisture  
Dew Point 51 °F    
Average Humidity 74    
Maximum Humidity 94    
Minimum Humidity 46    
Precipitation  
Precipitation 0.00 in - - ()
Sea Level Pressure  
Sea Level Pressure 30.29 in    
Wind  
Wind Speed 4 mph ()    
Max Wind Speed 7 mph    
Max Gust Speed -    
Visibility 6.2 miles    
Events      
Averages and records for this station are not official NWS values.
T = Trace of Precipitation, MM = Missing Value Source: Averaged Metar Reports

Daily Weather History Graph

Daily Weather History Graph

Search for Another Location

Airport or City:

Trip Planner

Search our weather history database for the weather conditions in past years. The results will help you decide how hot, cold, wet, or windy it might be!

Date:

Astronomy

Sep. 21, 2013 Rise Set
Actual Time 7:34 AM CEST 7:49 PM CEST
Civil Twilight 7:03 AM CEST 8:21 PM CEST
Nautical Twilight 6:25 AM CEST 8:58 PM CEST
Astronomical Twilight 5:47 AM CEST 9:37 PM CEST
Moon 8:34 PM CEST (9/21) 9:51 AM CEST (9/21)
Length of Visible Light 13h 18m
Length of Day
12h 14m
Waning Gibbous, 95% of the Moon is Illuminated
Sep 21
Waning Gibbous
Sep 27
Last Quarter
Oct 5
New
Oct 12
First Quarter
Oct 19
Full

Hourly Weather History & Observations

Time (CEST) Temp. Dew Point Humidity Pressure Visibility Wind Dir Wind Speed Gust Speed Precip Events Conditions
12:00 AM 55.4 °F 50.0 °F 82% 30.21 in - NNE 5.8 mph - N/A   Clear
12:30 AM 53.6 °F 48.2 °F 82% 30.21 in - NNE 4.6 mph - N/A   Clear
1:00 AM 53.6 °F 48.2 °F 82% 30.21 in - NNE 2.3 mph - N/A   Clear
2:00 AM 51.8 °F 48.2 °F 88% 30.24 in - North 3.5 mph - N/A   Clear
2:30 AM 51.8 °F 48.2 °F 88% 30.24 in - Variable 3.5 mph - N/A   Clear
3:00 AM 51.8 °F 48.2 °F 88% 30.24 in - Variable 2.3 mph - N/A   Clear
3:30 AM 51.8 °F 48.2 °F 88% 30.24 in 6.2 mi Variable 3.5 mph - N/A   Mostly Cloudy
4:00 AM 51.8 °F 48.2 °F 88% 30.24 in 6.2 mi North 3.5 mph - N/A   Scattered Clouds
4:30 AM 51.8 °F 48.2 °F 88% 30.24 in 6.2 mi North 5.8 mph - N/A   Mostly Cloudy
5:00 AM 50.0 °F 48.2 °F 94% 30.24 in 6.2 mi NNE 4.6 mph - N/A   Mostly Cloudy
5:30 AM 51.8 °F 48.2 °F 88% 30.27 in 6.2 mi North 3.5 mph - N/A   Mostly Cloudy
6:00 AM 50.0 °F 48.2 °F 94% 30.24 in 6.2 mi NE 4.6 mph - N/A   Scattered Clouds
6:30 AM 50.0 °F 48.2 °F 94% 30.24 in - ENE 3.5 mph - N/A   Clear
7:00 AM 50.0 °F 48.2 °F 94% 30.24 in - East 3.5 mph - N/A   Clear
7:30 AM 51.8 °F 48.2 °F 88% 30.27 in - East 3.5 mph - N/A   Clear
8:00 AM 50.0 °F 46.4 °F 87% 30.27 in 6.2 mi Variable 2.3 mph - N/A   Mostly Cloudy
8:30 AM 51.8 °F 48.2 °F 88% 30.27 in 6.2 mi Variable 3.5 mph - N/A   Mostly Cloudy
9:00 AM 51.8 °F 48.2 °F 88% 30.27 in 6.2 mi NNE 3.5 mph - N/A   Mostly Cloudy
9:30 AM 53.6 °F 48.2 °F 82% 30.30 in 6.2 mi Variable 2.3 mph - N/A   Mostly Cloudy
10:00 AM 55.4 °F 50.0 °F 82% 30.30 in 6.2 mi Calm Calm - N/A   Mostly Cloudy
10:30 AM 57.2 °F 51.8 °F 82% 30.30 in 6.2 mi Variable 2.3 mph - N/A   Mostly Cloudy
11:00 AM 59.0 °F 51.8 °F 77% 30.33 in 6.2 mi Variable 2.3 mph - N/A   Mostly Cloudy
11:30 AM 60.8 °F 51.8 °F 72% 30.33 in 6.2 mi Variable 1.2 mph - N/A   Mostly Cloudy
12:00 PM 62.6 °F 51.8 °F 68% 30.33 in 6.2 mi North 3.5 mph - N/A   Mostly Cloudy
12:30 PM 64.4 °F 51.8 °F 64% 30.33 in 6.2 mi Variable 3.5 mph - N/A   Mostly Cloudy
1:00 PM 66.2 °F 51.8 °F 60% 30.33 in 6.2 mi Variable 3.5 mph - N/A   Mostly Cloudy
1:30 PM 66.2 °F 51.8 °F 60% 30.33 in 6.2 mi WSW 5.8 mph - N/A   Mostly Cloudy
2:00 PM 68.0 °F 51.8 °F 56% 30.33 in 6.2 mi West 5.8 mph - N/A   Mostly Cloudy
2:30 PM 68.0 °F 53.6 °F 60% 30.33 in - WSW 4.6 mph - N/A   Clear
3:00 PM 68.0 °F 50.0 °F 52% 30.30 in - SW 5.8 mph - N/A   Clear
3:30 PM 69.8 °F 48.2 °F 46% 30.30 in - WSW 5.8 mph - N/A   Clear
4:00 PM 69.8 °F 50.0 °F 49% 30.30 in - West 5.8 mph - N/A   Clear
4:30 PM 69.8 °F 51.8 °F 53% 30.30 in 6.2 mi WNW 6.9 mph - N/A   Mostly Cloudy
5:00 PM 69.8 °F 51.8 °F 53% 30.30 in 6.2 mi WNW 4.6 mph - N/A   Mostly Cloudy
5:30 PM 69.8 °F 51.8 °F 53% 30.30 in - Variable 3.5 mph - N/A   Clear
6:00 PM 68.0 °F 51.8 °F 56% 30.30 in - West 3.5 mph - N/A   Clear
6:30 PM 68.0 °F 53.6 °F 60% 30.30 in - NW 6.9 mph - N/A   Clear
7:00 PM 68.0 °F 53.6 °F 60% 30.30 in - NW 4.6 mph - N/A   Clear
7:30 PM 66.2 °F 53.6 °F 64% 30.33 in - NNW 3.5 mph - N/A   Clear
8:00 PM 66.2 °F 53.6 °F 64% 30.33 in - North 2.3 mph - N/A   Clear
8:30 PM 64.4 °F 53.6 °F 68% 30.33 in - NNW 2.3 mph - N/A   Clear
9:00 PM 64.4 °F 53.6 °F 68% 30.33 in - North 1.2 mph - N/A   Clear
9:30 PM 62.6 °F 53.6 °F 72% 30.33 in - North 3.5 mph - N/A   Clear
10:00 PM 62.6 °F 53.6 °F 72% 30.33 in - North 3.5 mph - N/A   Clear
10:30 PM 62.6 °F 53.6 °F 72% 30.33 in - NNW 3.5 mph - N/A   Clear
11:00 PM 60.8 °F 53.6 °F 77% 30.36 in 6.2 mi North 3.5 mph - N/A   Mostly Cloudy
11:30 PM 60.8 °F 53.6 °F 77% 30.36 in 6.2 mi NNE 3.5 mph - N/A   Mostly Cloudy